KJ4RUS Largo FL US current weather conditions

sailwx.info

Wind from 155 at 11 knots gusting 22

Air temperature 22.2° C
Dewpoint 20.7° C

Last reported at 2018-Dec-14 19:02 UTC.
Time now 2018-Dec-14 19:33 UTC

Location: N 27°54' W 082°49'.
View on Google Maps.

See reports from other nearby stations

  
Tides and Currents Weather Stations Pressure Air Temp Water Temp Dewpoint Dewpoint Depression Visibility Wind Speed Wind Dir Waves Ship Positions
date/time (UTC)wind fromknots sea level pressurealtimeterstation pressurevisibilityair tempwater tempwave heightnotes
2018-Dec-14 19:02 155 11 gusting 22 22.2
2018-Dec-14 18:46 156 9 gusting 19 22.2
2018-Dec-14 18:32 166 9 gusting 20 22.2
2018-Dec-14 18:16 141 10 gusting 17 21.7
2018-Dec-14 18:01 157 8 gusting 15 21.7
2018-Dec-14 17:46 147 7 gusting 13 21.1
2018-Dec-14 17:31 148 6 gusting 12 21.1
2018-Dec-14 17:16 131 6 gusting 11 20.6
2018-Dec-14 17:01 136 7 gusting 13 20.6
2018-Dec-14 16:46 124 6 gusting 10 20.0
2018-Dec-14 16:30 133 3 gusting 6 20.0
2018-Dec-14 16:15 129 6 gusting 9 20.0
2018-Dec-14 16:01 169 1 gusting 5 20.0
2018-Dec-14 15:45 163 1 gusting 6 20.0
2018-Dec-14 15:31 157 20.0
2018-Dec-14 15:15 157 20.0
2018-Dec-14 15:00 156 20.0
2018-Dec-14 14:46 172 4 gusting 8 20.0
2018-Dec-14 14:30 150 2 gusting 12 20.6
2018-Dec-14 14:15 160 6 gusting 13 20.6
2018-Dec-14 14:00 182 7 gusting 13 20.6
2018-Dec-14 13:45 166 6 gusting 13 20.6
2018-Dec-14 13:30 147 7 gusting 13 21.1
2018-Dec-14 13:15 170 7 gusting 15 21.1
2018-Dec-14 13:00 136 7 gusting 14 21.7
2018-Dec-14 12:45 178 8 gusting 18 21.1
2018-Dec-14 12:30 184 8 gusting 16 21.1
2018-Dec-14 12:15 157 10 gusting 19 21.1
2018-Dec-14 12:00 148 12 gusting 20 21.1
2018-Dec-14 11:45 158 11 gusting 19 21.1
2018-Dec-14 11:30 172 7 gusting 22 21.1
2018-Dec-14 11:15 167 13 gusting 26 21.7
2018-Dec-14 11:00 167 12 gusting 19 21.1
2018-Dec-14 10:45 161 11 gusting 24 21.7
2018-Dec-14 10:30 159 10 gusting 21 21.1
2018-Dec-14 10:16 165 13 gusting 21 21.1
2018-Dec-14 10:02 141 9 gusting 20 21.1
2018-Dec-14 09:46 151 10 gusting 16 21.1
2018-Dec-14 09:32 155 12 gusting 19 21.1
2018-Dec-14 09:16 139 10 gusting 17 21.1
2018-Dec-14 09:01 123 7 gusting 18 21.1
2018-Dec-14 08:47 163 10 gusting 19 21.1
2018-Dec-14 08:31 134 12 gusting 23 21.1
2018-Dec-14 08:16 137 9 gusting 18 21.1
2018-Dec-14 08:01 167 13 gusting 19 21.1
2018-Dec-14 07:46 155 9 gusting 20 21.1
2018-Dec-14 07:31 142 13 gusting 20 20.6
2018-Dec-14 07:16 139 9 gusting 18 20.6
2018-Dec-14 07:01 140 11 gusting 20 20.6
2018-Dec-14 06:45 144 12 gusting 19 20.6
2018-Dec-14 06:32 135 13 gusting 19 20.6
2018-Dec-14 06:16 144 10 gusting 20 20.6
2018-Dec-14 06:01 158 12 gusting 20 20.6
2018-Dec-14 05:46 120 9 gusting 18 20.6
2018-Dec-14 05:30 157 11 gusting 18 20.6
2018-Dec-14 05:15 132 11 gusting 18 20.6
2018-Dec-14 05:00 153 10 gusting 19 21.1
2018-Dec-14 04:45 148 8 gusting 17 21.1
2018-Dec-14 04:30 128 10 gusting 19 21.1
2018-Dec-14 04:15 148 10 gusting 18 21.1
2018-Dec-14 04:00 120 8 gusting 15 21.1
2018-Dec-14 03:45 140 10 gusting 16 21.1
2018-Dec-14 03:30 113 6 gusting 14 21.1
2018-Dec-14 03:15 111 6 gusting 15 21.1
2018-Dec-14 03:00 150 6 gusting 13 21.1
2018-Dec-14 02:45 116 8 gusting 13 21.1
2018-Dec-14 02:15 139 10 gusting 18 21.7
2018-Dec-14 02:00 141 8 gusting 15 21.7
2018-Dec-14 01:45 113 5 gusting 12 21.7
2018-Dec-14 01:30 134 4 gusting 11 21.7
2018-Dec-14 01:15 130 4 gusting 9 21.7
2018-Dec-14 01:00 115 2 gusting 6 21.7
2018-Dec-14 00:45 142 2 gusting 6 21.7
2018-Dec-14 00:30 148 2 gusting 6 21.7
2018-Dec-14 00:15 113 21.7
2018-Dec-14 00:00 117 21.7
2018-Dec-13 23:45 109 22.2
2018-Dec-13 23:30 108 22.2
2018-Dec-13 23:15 105 22.2
2018-Dec-13 23:00 101 22.8
2018-Dec-13 22:45 123 22.8
2018-Dec-13 22:30 132 22.8
2018-Dec-13 22:15 132 23.3
2018-Dec-13 22:00 142 2 gusting 6 23.3
2018-Dec-13 21:45 102 2 gusting 6 23.3
2018-Dec-13 21:32 137 3 gusting 8 23.3
2018-Dec-13 21:17 157 6 gusting 10 23.9
2018-Dec-13 21:01 153 5 gusting 12 23.9
2018-Dec-13 20:46 177 7 gusting 14 23.9
2018-Dec-13 20:31 052 10 gusting 14 23.9
2018-Dec-13 20:17 155 5 gusting 15 23.9
2018-Dec-13 20:01 126 9 gusting 15 23.3
2018-Dec-13 19:46 152 12 gusting 19 23.3
2018-Dec-13 19:33 163 7 gusting 17 23.3
2018-Dec-13 19:18 140 9 gusting 14 23.3
2018-Dec-13 19:01 136 7 gusting 13 23.3
2018-Dec-13 18:46 130 7 gusting 15 22.8
2018-Dec-13 18:31 138 7 gusting 16 23.3
2018-Dec-13 18:16 139 7 gusting 15 22.8
2018-Dec-13 18:01 151 10 gusting 19 22.8
2018-Dec-13 17:46 122 6 gusting 14 22.8
2018-Dec-13 17:31 139 10 gusting 16 22.2
2018-Dec-13 17:15 125 9 gusting 16 21.7
2018-Dec-13 17:00 123 6 gusting 15 21.7
2018-Dec-13 16:45 130 8 gusting 16 21.1
2018-Dec-13 16:30 128 4 gusting 16 20.6
2018-Dec-13 16:15 121 9 gusting 17 20.6
2018-Dec-13 16:00 099 6 gusting 15 20.0
2018-Dec-13 15:45 119 6 gusting 12 20.0
2018-Dec-13 15:30 119 5 gusting 13 20.0
2018-Dec-13 15:15 141 6 gusting 10 19.4
2018-Dec-13 15:01 126 3 gusting 9 18.3
2018-Dec-13 14:47 067 3 gusting 9 17.8
2018-Dec-13 14:31 113 2 gusting 7 17.2
2018-Dec-13 14:16 110 5 gusting 9 16.1
2018-Dec-13 14:01 119 2 gusting 7 15.6
2018-Dec-13 13:45 046 2 gusting 6 15.6
2018-Dec-13 13:31 090 2 gusting 7 15.0
2018-Dec-13 13:15 068 2 gusting 6 15.0
2018-Dec-13 13:00 134 3 gusting 8 14.4
2018-Dec-13 12:46 098 1 gusting 6 14.4
2018-Dec-13 12:31 115 2 gusting 8 14.4
2018-Dec-13 12:16 104 3 gusting 9 13.9
2018-Dec-13 12:00 111 3 gusting 8 13.9
2018-Dec-13 11:45 109 2 gusting 8 13.9
2018-Dec-13 11:30 087 2 gusting 8 13.9
2018-Dec-13 11:15 080 3 gusting 7 13.3
2018-Dec-13 11:00 088 1 gusting 6 13.3
2018-Dec-13 10:45 119 1 gusting 6 13.3
2018-Dec-13 10:30 123 2 gusting 6 13.3
2018-Dec-13 10:16 065 2 gusting 7 13.3
2018-Dec-13 10:00 065 4 gusting 9 13.3
2018-Dec-13 09:45 065 2 gusting 6 13.3
2018-Dec-13 09:30 055 1 gusting 7 13.3
2018-Dec-13 09:15 068 2 gusting 7 13.3
2018-Dec-13 09:00 059 1 gusting 5 13.3
2018-Dec-13 08:45 126 0 gusting 6 13.3
2018-Dec-13 08:30 084 2 gusting 5 13.3
2018-Dec-13 08:15 082 2 gusting 7 13.3
2018-Dec-13 08:00 070 1 gusting 5 13.3
2018-Dec-13 07:45 071 1 gusting 4 13.3
2018-Dec-13 07:30 093 1 gusting 4 13.3
2018-Dec-13 07:16 077 0 gusting 4 13.3
2018-Dec-13 07:01 079 0 gusting 2 13.3
2018-Dec-13 06:47 076 1 gusting 3 13.3
2018-Dec-13 06:32 072 0 gusting 3 13.3
2018-Dec-13 06:18 067 0 gusting 3 13.3
2018-Dec-13 06:01 090 1 gusting 5 13.3
2018-Dec-13 05:46 064 0 gusting 3 13.3
2018-Dec-13 05:31 099 0 gusting 3 12.8
2018-Dec-13 05:17 080 0 gusting 4 12.8
2018-Dec-13 05:01 053 1 gusting 4 12.8
2018-Dec-13 04:46 087 1 gusting 3 12.2
2018-Dec-13 04:31 078 12.2
2018-Dec-13 04:16 066 1 gusting 4 11.7
2018-Dec-13 04:02 069 1 gusting 4 11.7
2018-Dec-13 03:46 062 0 gusting 4 11.7
2018-Dec-13 03:31 107 2 gusting 5 11.7
2018-Dec-13 03:16 063 0 gusting 3 11.1
2018-Dec-13 03:01 096 0 gusting 3 11.1
2018-Dec-13 02:46 058 1 gusting 4 11.1
2018-Dec-13 02:31 326 11.1
2018-Dec-13 02:16 326 11.1
2018-Dec-13 02:00 326 11.1
2018-Dec-13 01:46 005 11.1
2018-Dec-13 01:31 032 11.7
2018-Dec-13 01:16 055 11.7
2018-Dec-13 01:01 055 11.7
2018-Dec-13 00:46 055 0 gusting 3 11.7
2018-Dec-13 00:30 011 12.2
2018-Dec-13 00:16 360 0 gusting 3 12.2
2018-Dec-13 00:01 005 1 gusting 4 12.2
2018-Dec-12 23:46 360 0 gusting 2 12.2
2018-Dec-12 23:31 011 12.2
2018-Dec-12 23:16 336 1 gusting 6 12.8
2018-Dec-12 23:00 355 0 gusting 4 12.8
2018-Dec-12 22:45 355 13.3
2018-Dec-12 22:31 026 2 gusting 5 13.3
2018-Dec-12 22:16 346 2 gusting 5 13.9
2018-Dec-12 22:00 005 0 gusting 8 13.9
2018-Dec-12 21:45 012 1 gusting 6 14.4
2018-Dec-12 21:30 323 1 gusting 6 14.4
2018-Dec-12 21:15 355 3 gusting 8 14.4
2018-Dec-12 21:01 334 1 gusting 7 14.4
2018-Dec-12 20:45 012 1 gusting 8 15.0
2018-Dec-12 20:30 326 3 gusting 8 15.0
2018-Dec-12 20:15 317 2 gusting 7 15.6
2018-Dec-12 20:01 005 4 gusting 9 16.1
2018-Dec-12 19:46 319 3 gusting 8 17.8
2018-Dec-12 19:30 011 0 gusting 4 17.8
2018-Dec-12 19:15 082 17.2
2018-Dec-12 19:00 071 1 gusting 6 16.7